Lake Louise, Alberta

12:59 AM MST on January 16, 2018 (GMT -0700)
Lake Louise

Weather History for 71786 - October, 2013

Change the Weather History Date:

Saturday, October 19, 2013

  Actual Average Record
Temperature  
Mean Temperature 36 °F -  
Max Temperature 44 °F - - ()
Min Temperature 29 °F - - ()
Degree Days  
Heating Degree Days 28    
Moisture  
Dew Point 31 °F    
Average Humidity 83    
Maximum Humidity 96    
Minimum Humidity 64    
Precipitation  
Precipitation 0.00 in - - ()
Sea Level Pressure  
Sea Level Pressure 30.11 in    
Wind  
Wind Speed 12 mph ()    
Max Wind Speed 18 mph    
Max Gust Speed -    
T = Trace of Precipitation, MM = Missing Value Source: Averaged Metar Reports

Daily Weather History Graph

Daily Weather History Graph

Search for Another Location

Airport or City:

Trip Planner

Search our weather history database for the weather conditions in past years. The results will help you decide how hot, cold, wet, or windy it might be!

Date:

Astronomy

Oct. 19, 2013 Rise Set
Actual Time 8:16 AM MDT 6:42 PM MDT
Civil Twilight 7:42 AM MDT 7:16 PM MDT
Nautical Twilight 7:04 AM MDT 7:55 PM MDT
Astronomical Twilight 6:25 AM MDT 8:33 PM MDT
Moon 7:04 PM MDT (10/19) 9:06 AM MDT (10/19)
Length of Visible Light 11h 34m
Length of Day
10h 26m
Full, 99% of the Moon is Illuminated
Oct 19
Full
Oct 26
Last Quarter
Nov 3
New
Nov 9
First Quarter
Nov 17
Full

Hourly Weather History & Observations

Time (MDT) Temp. Windchill Dew Point Humidity Pressure Visibility Wind Dir Wind Speed Gust Speed Precip Events Conditions
12:00 AM 33 °F - 30 °F 85% 30.14 in - WSW 16.1 mph - -  
12:00 AM 33.1 °F 22.6 °F 30.2 °F 89% 30.14 in - WSW 16.1 mph - N/A   Unknown
1:00 AM 31.6 °F 20.7 °F 29.7 °F 92% 30.13 in - WSW 16.1 mph - N/A   Unknown
2:00 AM 32.0 °F 22.1 °F 29.5 °F 90% 30.12 in - WSW 13.8 mph - N/A   Unknown
3:00 AM 31.6 °F 20.7 °F 29.7 °F 92% 30.10 in - WSW 16.1 mph - N/A   Unknown
4:00 AM 31.5 °F 20.1 °F 28.9 °F 90% 30.10 in - WSW 17.3 mph - N/A   Unknown
5:00 AM 30.6 °F 19.0 °F 28.8 °F 93% 30.11 in - WSW 17.3 mph - N/A   Unknown
6:00 AM 30 °F - 29 °F 94% 30.13 in - WSW 18.4 mph - -  
6:00 AM 30.2 °F 18.1 °F 28.9 °F 95% 30.13 in - WSW 18.4 mph - N/A   Unknown
7:00 AM 29.7 °F 18.6 °F 28.6 °F 96% 30.13 in - WSW 15.0 mph - N/A   Unknown
8:00 AM 30.0 °F 19.5 °F 28.9 °F 96% 30.13 in - SW 13.8 mph - N/A   Unknown
9:00 AM 30.4 °F 18.7 °F 28.9 °F 94% 30.13 in - WSW 17.3 mph - N/A   Unknown
10:00 AM 30.4 °F 18.7 °F 28.9 °F 94% 30.13 in - WSW 17.3 mph - N/A   Unknown
11:00 AM 35.6 °F 26.2 °F 30.2 °F 81% 30.11 in - WSW 15.0 mph - N/A   Unknown
12:00 PM 36 °F - 30 °F 72% 30.09 in - WSW 18.4 mph - -  
12:00 PM 36.3 °F 26.1 °F 30.2 °F 78% 30.09 in - WSW 18.4 mph - N/A   Unknown
1:00 PM 41.5 °F 33.8 °F 30.2 °F 64% 30.07 in - WSW 15.0 mph - N/A   Unknown
2:00 PM 40.3 °F 32.6 °F 30.7 °F 69% 30.06 in - WSW 13.8 mph - N/A   Unknown
3:00 PM 41.2 °F 34.5 °F 31.6 °F 69% 30.06 in - WSW 11.5 mph - N/A   Unknown
4:00 PM 43.9 °F 38.8 °F 33.1 °F 66% 30.05 in - SW 9.2 mph - N/A   Unknown
5:00 PM 42.8 °F 38.6 °F 34.0 °F 71% 30.07 in - SW 6.9 mph - N/A   Unknown
6:00 PM 42 °F - 35 °F 66% 30.10 in - WSW 2.3 mph - -  
6:00 PM 41.7 °F - 34.5 °F 76% 30.10 in - WSW 2.3 mph - N/A   Unknown
7:00 PM 38.8 °F 35.4 °F 33.3 °F 80% 30.12 in - West 4.6 mph - N/A   Unknown
8:00 PM 36.0 °F 33.3 °F 31.1 °F 82% 30.14 in - West 3.5 mph - N/A   Unknown
9:00 PM 36.3 °F 33.7 °F 31.6 °F 83% 30.16 in - West 3.5 mph - N/A   Unknown
10:00 PM 35.4 °F - 29.8 °F 80% 30.15 in - WSW 2.3 mph - N/A   Unknown
11:00 PM 34.7 °F 31.8 °F 29.3 °F 81% 30.17 in - WSW 3.5 mph - N/A   Unknown